Location: Caltech
(34.1382°N, 118.1253°W)
Time: 17:01:21
(UTC-07:00)

CZ-2C R/B - Visible Passes

Search period start: 20 September 2014 00:00
Search period end: 30 September 2014 00:00
Orbit: 706 x 909 km, 98.1° (Epoch: 19 September)

Date Brightness Start Highest point End Pass type
(mag) Time Alt. Az. Time Alt. Az. Time Alt. Az.
20 Sep 5.7 02:56:27 16° NE 02:56:27 16° NE 02:58:04 10° NNE visible
20 Sep 5.0 04:37:33 17° NNW 04:37:33 17° NNW 04:38:50 10° NNW visible
21 Sep 6.1 02:31:50 10° NE 02:31:50 10° NE 02:31:58 10° NE visible
21 Sep 5.0 04:12:56 20° NNW 04:12:56 20° NNW 04:14:37 10° NNW visible
22 Sep 5.1 03:48:19 21° N 03:48:19 21° N 03:50:07 10° N visible
23 Sep 5.4 03:23:42 19° NNE 03:23:42 19° NNE 03:25:22 10° N visible
24 Sep 5.8 02:59:06 15° NNE 02:59:06 15° NNE 03:00:16 10° NNE visible
24 Sep 5.3 04:40:12 13° NNW 04:40:12 13° NNW 04:40:50 10° NNW visible
25 Sep 5.3 04:15:36 16° NNW 04:15:36 16° NNW 04:16:40 10° NNW visible
26 Sep 5.4 03:51:00 17° N 03:51:00 17° N 03:52:12 10° N visible
27 Sep 5.6 03:26:24 16° N 03:26:24 16° N 03:27:29 10° N visible
28 Sep 5.9 03:01:49 13° NNE 03:01:49 13° NNE 03:02:27 10° NNE visible
29 Sep 5.6 04:18:20 12° NNW 04:18:20 12° NNW 04:18:42 10° NNW visible
